JO-97
1 43803U 18099AX 20310.62605283 .00000602 00000-0 59238-4 0 9992
2 43803 097.6907 019.7583 0016701 080.7919 279.5190 14.95607764105031
Suomi 100
1 43804U 18099AY 20310.62813094 .00000479 00000-0 48238-4 0 9994
2 43804 097.6903 019.7421 0016763 080.7673 279.5443 14.95591845105048
Al Farabi 2
1 43805U 18099AZ 20310.79069624 .00000114 00000-0 15343-4 0 9992
2 43805 097.6900 020.0289 0016507 080.1237 280.1833 14.95732601105070
PWSat 2
1 43814U 18099BJ 20310.51498580 .00051022 00000-0 22288-2 0 9997
2 43814 097.7929 034.9597 0002198 123.6440 236.5005 15.21928083105097
CHOMPTT
1 43855U 18104G 20310.82411793 .00001687 00000-0 69387-4 0 9999
2 43855 085.0367 081.6479 0015366 248.6748 111.2854 15.23233310105046
ISAT
1 43879U 18111D 20310.93566818 -.00000033 00000-0 21621-5 0 9999
2 43879 097.6912 216.0090 0013795 126.0845 234.1660 14.96344740099626
UWE-4
1 43880U 18111E 20310.69222581 .00001029 00000-0 95319-4 0 9999
2 43880 097.6941 216.1180 0013538 128.3828 231.8612 14.96594130101616
Sparrow
1 43881U 18111F 20310.67048869 .00000347 00000-0 35459-4 0 9994
2 43881 097.6941 216.1896 0013415 127.1322 233.1127 14.96635372101611
Lume 1
1 43908U 18111AJ 20310.69790702 .00001751 00000-0 71837-4 0 9996
2 43908 97.2506 206.3685 0021407 8.6219 351.5383 15.25348336103557
FO-98
1 43933U 19003B 20310.65781569 .00000969 00000-0 44738-4 0 9992
2 43933 097.2130 354.8669 0019475 103.3448 256.9962 15.22322804100016
FO-99
1 43937U 19003F 20310.67487324 .00001802 00000-0 74918-4 0 9990
2 43937 97.2093 356.5394 0025547 85.7700 274.6457 15.24744786100153
Delphini 1
1 44030U 98067PW 20310.27631801 .00041820 00000-0 29567-3 0 9992
2 44030 051.6318 316.6978 0001525 338.0867 022.0066 15.73571504100628
MYSat 1
1 44045U 18092F 20310.60661091 .00003880 00000-0 11416-3 0 9997
2 44045 51.6393 76.5505 0011493 114.4302 245.7882 15.37510091 96998
AstroCast 0.2
1 44083U 19018F 20310.66962973 .00001025 00000-0 48089-4 0 9993
2 44083 97.4049 9.6481 0014129 43.0811 317.1528 15.21825663 88851
AISTechSat 3
1 44103U 19018AB 20310.74005920 .00001307 00000-0 57762-4 0 9996
2 44103 97.3912 9.9759 0014669 54.7352 63.6990 15.23407070 88947
AISat 1
1 44104U 19018AC 20310.65718347 .00001256 00000-0 41954-4 0 9990
2 44104 97.4505 21.1278 0059299 71.8930 288.8757 15.31328657 89416
Raavana-1
1 44329U 98067QE 20310.82932304 .00017574 00000-0 20770-3 0 9992
2 44329 051.6392 343.9067 0004229 159.2469 200.8697 15.61385479079068
Uguisu
1 44330U 98067QF 20310.46705909 .00015730 00000-0 18760-3 0 9991
2 44330 051.6369 345.9490 0004207 157.5967 202.5211 15.61244472078984
NepaliSat-1
1 44331U 98067QG 20310.50044010 .00017133 00000-0 20267-3 0 9990
2 44331 051.6369 345.4242 0004147 161.6680 198.4463 15.61383217079003
Prox-1
1 44339U 19036A 20310.67044294 .00001072 00000-0 20400-3 0 9993
2 44339 024.0008 303.1932 0010154 252.9962 106.9416 14.53195108072672
Oculus-ASR
1 44348U 19036K 20310.70037687 .00014909 00000-0 21713-3 0 9996
2 44348 028.5130 175.2813 0357150 017.2860 343.9553 15.05082941075083
Armadillo
1 44352U 19036P 20310.87332540 .00022054 00000-0 31492-3 0 9990
2 44352 028.5279 165.4953 0340314 032.0418 330.0394 15.09010689075147
NO-104
1 44354U 19036R 20310.86310769 .00015555 00000-0 22231-3 0 9999
2 44354 028.5277 170.1674 0353498 024.1447 337.5287 15.06235577075146
NO-103
1 44355U 19036S 20310.85225326 .00033483 00000-0 44345-3 0 9993
2 44355 028.5264 152.4245 0322113 052.9453 310.0151 15.14302783075325
CP9
1 44360U 19036X 20310.64878862 .00061081 -48667-5 63951-3 0 9991
2 44360 028.5083 127.0626 0290792 095.3210 268.0629 15.25001305075432
Move-IIb
1 44398U 19038N 20310.93396051 .00002526 00000-0 14702-3 0 9993
2 44398 097.5527 270.5156 0025496 004.0843 356.0589 15.12691082073962
SONATE
1 44400U 19038Q 20310.87798904 .00001297 00000-0 78613-4 0 9999
2 44400 097.5563 270.4590 0025384 003.3141 356.8254 15.12117018073943
BeeSat 9
1 44412U 19038AC 20310.85646853 .00001492 00000-0 88873-4 0 9991
2 44412 097.5573 270.5767 0022931 008.8509 351.3121 15.12555691073640
JAISAT-1
1 44419U 19038F 20310.63316848 .00001566 00000-0 91927-4 0 9998
2 44419 97.5574 270.7275 0021734 8.6868 351.4735 15.13039540 73946
LightSail-2
1 44420U 19036AC 20310.61748032 .00008457 00000-0 17914-2 0 9998
2 44420 024.0071 294.9477 0011145 222.3188 137.6445 14.57123139070902
Taurus 1
1 44530U 19059C 20310.79373767 .00000346 00000-0 11021-3 0 9996
2 44530 98.5639 33.2126 0016035 99.6189 260.6776 14.45743964 60762
Duchifat 3
1 44854U 19089C 20310.49943100 .00000634 00000-0 57534-4 0 9999
2 44854 36.9679 344.7383 0007114 123.0859 237.0570 14.99182663 49477
OPS-SAT
1 44878U 19092F 20310.45913686 .00001553 00000-0 84771-4 0 9995
2 44878 097.4702 131.3971 0012915 223.6768 136.3444 15.15760282048890
TO-108
1 44881U 19093C 20310.83069942 .00000054 00000-0 13773-4 0 9998
2 44881 97.9474 25.8388 0013827 301.5689 58.4160 14.81415106 47628
FloripaSat 1
1 44885U 19093G 20310.83435693 .00000373 00000-0 53577-4 0 9992
2 44885 97.9480 26.1308 0013579 311.8726 48.1310 14.82110004 47640
RS-44
1 44909U 19096E 20310.63389145 .00000032 00000-0 89067-4 0 9995
2 44909 082.5203 261.4918 0216250 256.4043 101.2890 12.79708439040240
SwampSat-2
1 45115U 19071E 20310.66170659 .00018714 00000-0 49124-3 0 9994
2 45115 51.6417 37.0962 0011063 210.7913 149.2423 15.38610405 42838
HO-107
1 45119U 19071J 20310.65386580 .00003168 00000-0 10559-3 0 9996
2 45119 51.6437 40.7315 0011869 200.7428 159.3074 15.34140837 42793
Phoenix
1 45258U 98067RB 20310.44762565 .00005648 00000-0 98761-4 0 9997
2 45258 051.6422 006.1060 0005828 138.4302 221.7131 15.52269153040362
AztechSat-1
1 45261U 98067RE 20310.59515960 .00012290 00000-0 18947-3 0 9990
2 45261 051.6413 003.3530 0006475 156.7765 203.3520 15.54569590040449
QARMAN
1 45263U 98067RG 20310.57743127 .00010709 00000-0 17290-3 0 9991
2 45263 051.6417 004.7313 0006350 153.0521 207.0801 15.53445134040451
Quetzal 1
1 45598U 98067RL 20310.60680038 .00009436 00000-0 15921-3 0 9991
2 45598 051.6427 006.4306 0002115 261.2179 098.8572 15.52381571029709
BY70-2
1 45857U 20042B 20310.83891829 .00001290 00000-0 19291-3 0 9998
2 45857 98.0046 22.7925 0010809 206.6386 153.4264 14.76410543 18553
UPMSat 2
1 46276U 20061E 20310.83649604 .00000614 00000-0 35266-4 0 9997
2 46276 097.4579 022.8425 0002895 076.0309 284.1246 15.16105471009658
AmicalSat
1 46287U 20061R 20310.76211851 .00000920 00000-0 60469-4 0 9993
2 46287 97.5131 22.6834 0003912 127.3825 232.7761 15.10017681 9583
